User: anonymous   Login
Location: Caltech
(34.1382°N, 118.1253°W)
Time: 21:44:15
(UTC-08:00)
Language:

PANSAT - Orbit

View from above orbital plane
View from above orbital plane
View from above satellite
View from above satellite

Ground track
Ground track

The orbit data is extracted from the following two-line orbital elements,

1 25520U 98064B   16039.52333225  .00003002  00000-0  10106-3 0  9991
2 25520  28.4581 111.2120 0005092 282.6279  77.3746 15.27302219958552
Epoch (UTC): 08 February 2016 12:33:35
Eccentricity: 0.0005092
inclination: 28.4581°
perigee height: 480 km
apogee height: 487 km
right ascension of ascending node: 111.2120°
argument of perigee: 282.6279°
revolutions per day: 15.27302219
mean anomaly at epoch: 77.3746°
orbit number at epoch: 95855

The dashed part of the orbit path shows where the satellite is in the earth's shadow,  

DLR